PRIVATE WETTERSTATION BILLIGHEIM-ALLFELD                       ZURCK
Wetterdaten: Donnerstag, 09.11.2017
Datum Zeit Temp. A. Temp. A. min Temp. A. max Feuchte A. Luftdruck Regen Wind Richtung Richtung Sonnenschein ET Solar Taupunkt Windchill Windben Empfang
09.11.2017 00:00 6,1 C 6,1 C 6,1 C 91 % 1019,9 hPa 0,0 l/m 0,0 km/h (0 Bft) N 0 0 min 0,000 mm 0 W/m 4,7 C 6,1 C 0,0 km/h (0 Bft) 97 %
09.11.2017 00:10 6,1 C 6,1 C 6,1 C 91 % 1019,9 hPa 0,0 l/m 1,6 km/h (1 Bft) W-SW 247 0 min 0,000 mm 0 W/m 4,7 C 6,1 C 4,8 km/h (1 Bft) 97 %
09.11.2017 00:20 6,1 C 6,1 C 6,1 C 91 % 1020,0 hPa 0,0 l/m 0,0 km/h (0 Bft) W-SW 247 0 min 0,000 mm 0 W/m 4,7 C 6,1 C 1,6 km/h (1 Bft) 98 %
09.11.2017 00:30 6,1 C 6,1 C 6,1 C 91 % 1020,0 hPa 0,0 l/m 0,0 km/h (0 Bft) N 0 0 min 0,000 mm 0 W/m 4,7 C 6,1 C 0,0 km/h (0 Bft) 98 %
09.11.2017 00:40 6,1 C 6,1 C 6,1 C 91 % 1020,0 hPa 0,2 l/m 0,0 km/h (0 Bft) W-SW 247 0 min 0,000 mm 0 W/m 4,7 C 6,1 C 3,2 km/h (1 Bft) 98 %
09.11.2017 00:50 6,1 C 6,1 C 6,1 C 91 % 1020,0 hPa 0,0 l/m 1,6 km/h (1 Bft) W-SW 247 0 min 0,000 mm 0 W/m 4,7 C 6,1 C 4,8 km/h (1 Bft) 98 %
09.11.2017 01:00 6,1 C 6,1 C 6,1 C 91 % 1019,9 hPa 0,0 l/m 1,6 km/h (1 Bft) W-SW 247 0 min 0,000 mm 0 W/m 4,7 C 6,1 C 6,4 km/h (2 Bft) 97 %
09.11.2017 01:10 6,1 C 6,1 C 6,1 C 91 % 1020,0 hPa 0,0 l/m 1,6 km/h (1 Bft) W-SW 247 0 min 0,000 mm 0 W/m 4,7 C 6,1 C 3,2 km/h (1 Bft) 98 %
09.11.2017 01:20 6,0 C 6,0 C 6,1 C 91 % 1020,0 hPa 0,0 l/m 1,6 km/h (1 Bft) W-SW 247 0 min 0,000 mm 0 W/m 4,6 C 6,0 C 6,4 km/h (2 Bft) 98 %
09.11.2017 01:30 6,0 C 6,0 C 6,0 C 91 % 1020,0 hPa 0,2 l/m 0,0 km/h (0 Bft) W-SW 247 0 min 0,000 mm 0 W/m 4,6 C 6,0 C 4,8 km/h (1 Bft) 98 %
09.11.2017 01:40 6,0 C 6,0 C 6,0 C 91 % 1020,2 hPa 0,0 l/m 0,0 km/h (0 Bft) W-SW 247 0 min 0,000 mm 0 W/m 4,6 C 6,0 C 3,2 km/h (1 Bft) 89 %
09.11.2017 01:50 6,0 C 5,9 C 6,0 C 91 % 1020,2 hPa 0,0 l/m 0,0 km/h (0 Bft) W-SW 247 0 min 0,000 mm 0 W/m 4,6 C 6,0 C 4,8 km/h (1 Bft) 98 %
09.11.2017 02:00 5,9 C 5,9 C 6,0 C 91 % 1020,1 hPa 0,2 l/m 3,2 km/h (1 Bft) W-NW 292 0 min 0,000 mm 0 W/m 4,5 C 5,9 C 9,7 km/h (2 Bft) 98 %
09.11.2017 02:10 5,9 C 5,9 C 5,9 C 91 % 1020,0 hPa 0,0 l/m 3,2 km/h (1 Bft) W-NW 292 0 min 0,000 mm 0 W/m 4,5 C 5,9 C 6,4 km/h (2 Bft) 97 %
09.11.2017 02:20 5,9 C 5,9 C 5,9 C 91 % 1020,0 hPa 0,0 l/m 1,6 km/h (1 Bft) W-NW 292 0 min 0,000 mm 0 W/m 4,5 C 5,9 C 4,8 km/h (1 Bft) 98 %
09.11.2017 02:30 5,8 C 5,8 C 5,9 C 91 % 1019,9 hPa 0,0 l/m 1,6 km/h (1 Bft) W-NW 292 0 min 0,000 mm 0 W/m 4,4 C 5,8 C 8,0 km/h (2 Bft) 97 %
09.11.2017 02:40 5,8 C 5,8 C 5,9 C 91 % 1020,0 hPa 0,0 l/m 3,2 km/h (1 Bft) W-NW 292 0 min 0,000 mm 0 W/m 4,4 C 5,8 C 6,4 km/h (2 Bft) 98 %
09.11.2017 02:50 5,8 C 5,8 C 5,8 C 91 % 1019,9 hPa 0,0 l/m 1,6 km/h (1 Bft) W-NW 292 0 min 0,000 mm 0 W/m 4,4 C 5,8 C 4,8 km/h (1 Bft) 97 %
09.11.2017 03:00 5,8 C 5,8 C 5,8 C 91 % 1020,0 hPa 0,0 l/m 0,0 km/h (0 Bft) W-NW 292 0 min 0,000 mm 0 W/m 4,4 C 5,8 C 4,8 km/h (1 Bft) 98 %
09.11.2017 03:10 5,8 C 5,8 C 5,8 C 91 % 1020,1 hPa 0,0 l/m 0,0 km/h (0 Bft) W-NW 292 0 min 0,000 mm 0 W/m 4,4 C 5,8 C 3,2 km/h (1 Bft) 97 %
09.11.2017 03:20 5,8 C 5,8 C 5,8 C 91 % 1020,1 hPa 0,0 l/m 0,0 km/h (0 Bft) W-NW 292 0 min 0,000 mm 0 W/m 4,4 C 5,8 C 3,2 km/h (1 Bft) 97 %
09.11.2017 03:30 5,8 C 5,8 C 5,8 C 91 % 1020,2 hPa 0,0 l/m 0,0 km/h (0 Bft) W-NW 292 0 min 0,000 mm 0 W/m 4,4 C 5,8 C 4,8 km/h (1 Bft) 98 %
09.11.2017 03:40 5,8 C 5,8 C 5,8 C 91 % 1020,2 hPa 0,0 l/m 0,0 km/h (0 Bft) N 0 0 min 0,000 mm 0 W/m 4,4 C 5,8 C 0,0 km/h (0 Bft) 98 %
09.11.2017 03:50 5,8 C 5,8 C 5,8 C 91 % 1020,3 hPa 0,0 l/m 0,0 km/h (0 Bft) N 0 0 min 0,000 mm 0 W/m 4,4 C 5,8 C 0,0 km/h (0 Bft) 97 %
09.11.2017 04:00 5,8 C 5,8 C 5,8 C 91 % 1020,3 hPa 0,0 l/m 0,0 km/h (0 Bft) N 0 0 min 0,000 mm 0 W/m 4,4 C 5,8 C 0,0 km/h (0 Bft) 99 %
09.11.2017 04:10 5,8 C 5,8 C 5,8 C 91 % 1020,3 hPa 0,0 l/m 1,6 km/h (1 Bft) W-NW 292 0 min 0,000 mm 0 W/m 4,4 C 5,8 C 4,8 km/h (1 Bft) 99 %
09.11.2017 04:20 5,8 C 5,8 C 5,8 C 91 % 1020,3 hPa 0,0 l/m 0,0 km/h (0 Bft) W-NW 292 0 min 0,000 mm 0 W/m 4,4 C 5,8 C 4,8 km/h (1 Bft) 100 %
09.11.2017 04:30 5,8 C 5,8 C 5,8 C 91 % 1020,3 hPa 0,0 l/m 1,6 km/h (1 Bft) W-NW 292 0 min 0,000 mm 0 W/m 4,4 C 5,8 C 4,8 km/h (1 Bft) 99 %
09.11.2017 04:40 5,8 C 5,8 C 5,8 C 91 % 1020,4 hPa 0,0 l/m 1,6 km/h (1 Bft) W-NW 292 0 min 0,000 mm 0 W/m 4,4 C 5,8 C 6,4 km/h (2 Bft) 100 %
09.11.2017 04:50 5,8 C 5,7 C 5,8 C 91 % 1020,6 hPa 0,0 l/m 1,6 km/h (1 Bft) W-NW 292 0 min 0,000 mm 0 W/m 4,4 C 5,8 C 6,4 km/h (2 Bft) 100 %
09.11.2017 05:00 5,7 C 5,7 C 5,8 C 91 % 1020,6 hPa 0,0 l/m 0,0 km/h (0 Bft) N 0 0 min 0,000 mm 0 W/m 4,3 C 5,7 C 0,0 km/h (0 Bft) 100 %
09.11.2017 05:10 5,7 C 5,7 C 5,7 C 91 % 1020,5 hPa 0,0 l/m 0,0 km/h (0 Bft) W-NW 292 0 min 0,000 mm 0 W/m 4,3 C 5,7 C 3,2 km/h (1 Bft) 100 %
09.11.2017 05:20 5,7 C 5,7 C 5,7 C 91 % 1020,5 hPa 0,0 l/m 0,0 km/h (0 Bft) N 0 0 min 0,000 mm 0 W/m 4,3 C 5,7 C 0,0 km/h (0 Bft) 100 %
09.11.2017 05:30 5,7 C 5,7 C 5,7 C 91 % 1020,5 hPa 0,0 l/m 0,0 km/h (0 Bft) N 0 0 min 0,000 mm 0 W/m 4,3 C 5,7 C 0,0 km/h (0 Bft) 100 %
09.11.2017 05:40 5,7 C 5,7 C 5,7 C 91 % 1020,6 hPa 0,0 l/m 0,0 km/h (0 Bft) N 0 0 min 0,000 mm 0 W/m 4,3 C 5,7 C 0,0 km/h (0 Bft) 100 %
09.11.2017 05:50 5,7 C 5,7 C 5,8 C 91 % 1020,7 hPa 0,0 l/m 3,2 km/h (1 Bft) W 270 0 min 0,000 mm 0 W/m 4,3 C 5,7 C 6,4 km/h (2 Bft) 100 %
09.11.2017 06:00 5,7 C 5,7 C 5,8 C 91 % 1020,8 hPa 0,0 l/m 1,6 km/h (1 Bft) W 270 0 min 0,000 mm 0 W/m 4,3 C 5,7 C 4,8 km/h (1 Bft) 99 %
09.11.2017 06:10 5,7 C 5,7 C 5,7 C 91 % 1021,0 hPa 0,0 l/m 1,6 km/h (1 Bft) W 270 0 min 0,000 mm 0 W/m 4,3 C 5,7 C 4,8 km/h (1 Bft) 100 %
09.11.2017 06:20 5,7 C 5,7 C 5,7 C 91 % 1021,1 hPa 0,0 l/m 1,6 km/h (1 Bft) W 270 0 min 0,000 mm 0 W/m 4,3 C 5,7 C 4,8 km/h (1 Bft) 100 %
09.11.2017 06:30 5,7 C 5,7 C 5,7 C 91 % 1021,1 hPa 0,0 l/m 1,6 km/h (1 Bft) W 270 0 min 0,000 mm 0 W/m 4,3 C 5,7 C 4,8 km/h (1 Bft) 99 %
09.11.2017 06:40 5,7 C 5,7 C 5,7 C 91 % 1021,1 hPa 0,0 l/m 1,6 km/h (1 Bft) W 270 0 min 0,000 mm 0 W/m 4,3 C 5,7 C 4,8 km/h (1 Bft) 100 %
09.11.2017 06:50 5,7 C 5,7 C 5,7 C 91 % 1021,2 hPa 0,0 l/m 1,6 km/h (1 Bft) W 270 0 min 0,000 mm 0 W/m 4,3 C 5,7 C 4,8 km/h (1 Bft) 100 %
09.11.2017 07:00 5,7 C 5,7 C 5,7 C 91 % 1021,3 hPa 0,0 l/m 0,0 km/h (0 Bft) W 270 0 min 0,000 mm 0 W/m 4,3 C 5,7 C 3,2 km/h (1 Bft) 100 %
09.11.2017 07:10 5,7 C 5,7 C 5,7 C 91 % 1021,5 hPa 0,0 l/m 1,6 km/h (1 Bft) W 270 0 min 0,000 mm 0 W/m 4,3 C 5,7 C 4,8 km/h (1 Bft) 100 %
09.11.2017 07:20 5,7 C 5,7 C 5,7 C 91 % 1021,6 hPa 0,0 l/m 1,6 km/h (1 Bft) W 270 0 min 0,000 mm 0 W/m 4,3 C 5,7 C 6,4 km/h (2 Bft) 100 %
09.11.2017 07:30 5,7 C 5,7 C 5,7 C 91 % 1021,6 hPa 0,0 l/m 1,6 km/h (1 Bft) W 270 0 min 0,000 mm 0 W/m 4,3 C 5,7 C 4,8 km/h (1 Bft) 99 %
09.11.2017 07:40 5,7 C 5,7 C 5,7 C 91 % 1021,6 hPa 0,0 l/m 1,6 km/h (1 Bft) W 270 0 min 0,000 mm 0 W/m 4,3 C 5,7 C 4,8 km/h (1 Bft) 99 %
09.11.2017 07:50 5,7 C 5,7 C 5,7 C 91 % 1021,8 hPa 0,0 l/m 1,6 km/h (1 Bft) W 270 0 min 0,000 mm 0 W/m 4,3 C 5,7 C 4,8 km/h (1 Bft) 100 %
09.11.2017 08:00 5,7 C 5,7 C 5,7 C 91 % 1021,8 hPa 0,0 l/m 1,6 km/h (1 Bft) W 270 0 min 0,000 mm 0 W/m 4,3 C 5,7 C 4,8 km/h (1 Bft) 100 %
09.11.2017 08:10 5,7 C 5,7 C 5,7 C 91 % 1021,9 hPa 0,0 l/m 0,0 km/h (0 Bft) W 270 0 min 0,000 mm 5 W/m 4,3 C 5,7 C 3,2 km/h (1 Bft) 100 %
09.11.2017 08:20 5,7 C 5,7 C 5,7 C 91 % 1022,0 hPa 0,0 l/m 0,0 km/h (0 Bft) W 270 0 min 0,000 mm 7 W/m 4,3 C 5,7 C 3,2 km/h (1 Bft) 100 %
09.11.2017 08:30 5,7 C 5,7 C 5,7 C 91 % 1022,1 hPa 0,0 l/m 0,0 km/h (0 Bft) W 270 0 min 0,000 mm 9 W/m 4,3 C 5,7 C 4,8 km/h (1 Bft) 100 %
09.11.2017 08:40 5,7 C 5,7 C 5,7 C 91 % 1022,1 hPa 0,0 l/m 3,2 km/h (1 Bft) W 270 0 min 0,000 mm 9 W/m 4,3 C 5,7 C 6,4 km/h (2 Bft) 100 %
09.11.2017 08:50 5,7 C 5,7 C 5,7 C 91 % 1022,2 hPa 0,0 l/m 3,2 km/h (1 Bft) W-SW 247 0 min 0,000 mm 9 W/m 4,3 C 5,7 C 4,8 km/h (1 Bft) 100 %
09.11.2017 09:00 5,7 C 5,7 C 5,7 C 91 % 1022,3 hPa 0,0 l/m 3,2 km/h (1 Bft) W-SW 247 0 min 0,000 mm 9 W/m 4,3 C 5,7 C 8,0 km/h (2 Bft) 100 %
09.11.2017 09:10 5,7 C 5,7 C 5,7 C 91 % 1022,5 hPa 0,0 l/m 3,2 km/h (1 Bft) W-SW 247 0 min 0,000 mm 14 W/m 4,3 C 5,7 C 6,4 km/h (2 Bft) 100 %
09.11.2017 09:20 5,7 C 5,7 C 5,7 C 91 % 1022,4 hPa 0,0 l/m 1,6 km/h (1 Bft) W-SW 247 0 min 0,000 mm 16 W/m 4,3 C 5,7 C 4,8 km/h (1 Bft) 100 %
09.11.2017 09:30 5,7 C 5,7 C 5,8 C 91 % 1022,5 hPa 0,0 l/m 1,6 km/h (1 Bft) W-SW 247 0 min 0,000 mm 14 W/m 4,3 C 5,7 C 4,8 km/h (1 Bft) 100 %
09.11.2017 09:40 5,8 C 5,7 C 5,8 C 91 % 1022,7 hPa 0,0 l/m 1,6 km/h (1 Bft) W-SW 247 0 min 0,000 mm 11 W/m 4,4 C 5,8 C 4,8 km/h (1 Bft) 100 %
09.11.2017 09:50 5,7 C 5,7 C 5,8 C 91 % 1022,7 hPa 0,2 l/m 1,6 km/h (1 Bft) W-SW 247 0 min 0,000 mm 12 W/m 4,3 C 5,7 C 4,8 km/h (1 Bft) 100 %
09.11.2017 10:00 5,7 C 5,7 C 5,8 C 91 % 1022,7 hPa 0,0 l/m 3,2 km/h (1 Bft) W-SW 247 0 min 0,000 mm 21 W/m 4,3 C 5,7 C 8,0 km/h (2 Bft) 100 %
09.11.2017 10:10 5,7 C 5,7 C 5,7 C 91 % 1022,8 hPa 0,0 l/m 3,2 km/h (1 Bft) W-SW 247 0 min 0,000 mm 18 W/m 4,3 C 5,7 C 8,0 km/h (2 Bft) 100 %
09.11.2017 10:20 5,7 C 5,7 C 5,7 C 91 % 1022,9 hPa 0,0 l/m 3,2 km/h (1 Bft) SW 225 0 min 0,000 mm 21 W/m 4,3 C 5,7 C 6,4 km/h (2 Bft) 100 %
09.11.2017 10:30 5,7 C 5,7 C 5,7 C 91 % 1023,0 hPa 0,0 l/m 1,6 km/h (1 Bft) SW 225 0 min 0,000 mm 28 W/m 4,3 C 5,7 C 3,2 km/h (1 Bft) 100 %
09.11.2017 10:40 5,8 C 5,7 C 5,8 C 91 % 1023,0 hPa 0,0 l/m 0,0 km/h (0 Bft) SW 225 0 min 0,000 mm 46 W/m 4,4 C 5,8 C 3,2 km/h (1 Bft) 100 %
09.11.2017 10:50 5,9 C 5,8 C 5,9 C 91 % 1023,0 hPa 0,0 l/m 1,6 km/h (1 Bft) SW 225 0 min 0,000 mm 53 W/m 4,5 C 5,9 C 3,2 km/h (1 Bft) 100 %
09.11.2017 11:00 6,0 C 5,9 C 6,0 C 91 % 1023,0 hPa 0,0 l/m 3,2 km/h (1 Bft) SW 225 0 min 0,025 mm 65 W/m 4,6 C 6,0 C 6,4 km/h (2 Bft) 100 %
09.11.2017 11:10 6,0 C 6,0 C 6,1 C 91 % 1023,1 hPa 0,0 l/m 3,2 km/h (1 Bft) SW 225 0 min 0,000 mm 70 W/m 4,6 C 6,0 C 6,4 km/h (2 Bft) 100 %
09.11.2017 11:20 6,1 C 6,0 C 6,1 C 91 % 1023,0 hPa 0,0 l/m 3,2 km/h (1 Bft) SW 225 0 min 0,000 mm 49 W/m 4,7 C 6,1 C 8,0 km/h (2 Bft) 100 %
09.11.2017 11:30 6,1 C 6,1 C 6,1 C 91 % 1023,0 hPa 0,0 l/m 3,2 km/h (1 Bft) SW 225 0 min 0,000 mm 35 W/m 4,7 C 6,1 C 8,0 km/h (2 Bft) 99 %
09.11.2017 11:40 6,1 C 6,0 C 6,1 C 91 % 1023,0 hPa 0,0 l/m 3,2 km/h (1 Bft) SW 225 0 min 0,000 mm 39 W/m 4,7 C 6,1 C 8,0 km/h (2 Bft) 100 %
09.11.2017 11:50 6,1 C 6,1 C 6,1 C 91 % 1022,9 hPa 0,0 l/m 3,2 km/h (1 Bft) SW 225 0 min 0,000 mm 44 W/m 4,7 C 6,1 C 6,4 km/h (2 Bft) 100 %
09.11.2017 12:10 6,1 C 6,1 C 6,1 C 91 % 1022,8 hPa 0,0 l/m 4,8 km/h (1 Bft) S-SW 208 0 min 0,026 mm 49 W/m 4,7 C 6,1 C 9,7 km/h (2 Bft) 98 %
09.11.2017 12:20 6,1 C 6,1 C 6,1 C 91 % 1022,8 hPa 0,0 l/m 3,1 km/h (1 Bft) S-SW 209 0 min 0,000 mm 35 W/m 4,7 C 6,1 C 8,0 km/h (2 Bft) 97 %
09.11.2017 12:30 6,1 C 6,1 C 6,1 C 91 % 1022,8 hPa 0,0 l/m 4,1 km/h (1 Bft) S-SW 206 0 min 0,000 mm 49 W/m 4,7 C 6,1 C 8,0 km/h (2 Bft) 98 %
09.11.2017 12:40 6,2 C 6,1 C 6,2 C 91 % 1022,8 hPa 0,0 l/m 4,1 km/h (1 Bft) W-SW 250 0 min 0,000 mm 47 W/m 4,8 C 6,2 C 8,0 km/h (2 Bft) 97 %
09.11.2017 12:50 6,2 C 6,2 C 6,2 C 91 % 1022,8 hPa 0,0 l/m 4,1 km/h (1 Bft) SW 230 0 min 0,000 mm 47 W/m 4,8 C 6,2 C 9,7 km/h (2 Bft) 90 %
09.11.2017 13:00 6,2 C 6,2 C 6,2 C 91 % 1022,9 hPa 0,0 l/m 1,9 km/h (1 Bft) SW 227 0 min 0,025 mm 30 W/m 4,8 C 6,2 C 6,4 km/h (2 Bft) 97 %
09.11.2017 13:10 6,2 C 6,2 C 6,3 C 91 % 1022,8 hPa 0,0 l/m 2,0 km/h (1 Bft) SW 229 0 min 0,000 mm 21 W/m 4,8 C 6,2 C 6,4 km/h (2 Bft) 97 %
09.11.2017 13:20 6,2 C 6,2 C 6,3 C 91 % 1022,8 hPa 0,0 l/m 4,2 km/h (1 Bft) W 264 0 min 0,000 mm 28 W/m 4,8 C 6,2 C 11,3 km/h (2 Bft) 98 %
09.11.2017 13:30 6,1 C 6,1 C 6,2 C 91 % 1022,7 hPa 0,0 l/m 3,7 km/h (1 Bft) W 265 0 min 0,000 mm 23 W/m 4,7 C 6,1 C 9,7 km/h (2 Bft) 97 %
09.11.2017 13:40 6,1 C 6,1 C 6,1 C 91 % 1022,7 hPa 0,0 l/m 2,3 km/h (1 Bft) W 265 0 min 0,000 mm 23 W/m 4,7 C 6,1 C 8,0 km/h (2 Bft) 98 %
09.11.2017 13:50 6,1 C 6,1 C 6,1 C 91 % 1022,7 hPa 0,0 l/m 3,3 km/h (1 Bft) W 265 0 min 0,000 mm 19 W/m 4,7 C 6,1 C 6,4 km/h (2 Bft) 97 %
09.11.2017 14:00 6,1 C 6,1 C 6,1 C 91 % 1022,8 hPa 0,0 l/m 1,7 km/h (1 Bft) W 262 0 min 0,026 mm 19 W/m 4,7 C 6,1 C 8,0 km/h (2 Bft) 89 %
09.11.2017 14:10 6,1 C 6,1 C 6,1 C 91 % 1022,8 hPa 0,0 l/m 0,0 km/h (0 Bft) W 262 0 min 0,000 mm 14 W/m 4,7 C 6,1 C 0,0 km/h (0 Bft) 97 %
09.11.2017 14:20 6,1 C 6,1 C 6,1 C 91 % 1022,8 hPa 0,0 l/m 2,2 km/h (1 Bft) W 262 0 min 0,000 mm 21 W/m 4,7 C 6,1 C 4,8 km/h (1 Bft) 98 %
09.11.2017 14:30 6,1 C 6,1 C 6,1 C 91 % 1022,8 hPa 0,0 l/m 2,6 km/h (1 Bft) SW 234 0 min 0,000 mm 23 W/m 4,7 C 6,1 C 8,0 km/h (2 Bft) 98 %
09.11.2017 14:40 6,1 C 6,0 C 6,1 C 91 % 1022,8 hPa 0,0 l/m 3,8 km/h (1 Bft) SW 227 0 min 0,000 mm 18 W/m 4,7 C 6,1 C 8,0 km/h (2 Bft) 97 %
09.11.2017 14:50 6,0 C 6,0 C 6,1 C 91 % 1022,8 hPa 0,0 l/m 2,9 km/h (1 Bft) SW 235 0 min 0,000 mm 14 W/m 4,6 C 6,0 C 6,4 km/h (2 Bft) 98 %
09.11.2017 15:00 6,0 C 6,0 C 6,1 C 91 % 1022,9 hPa 0,0 l/m 2,0 km/h (1 Bft) SW 232 0 min 0,000 mm 9 W/m 4,6 C 6,0 C 6,4 km/h (2 Bft) 98 %
09.11.2017 15:10 6,0 C 6,0 C 6,1 C 91 % 1022,9 hPa 0,0 l/m 3,0 km/h (1 Bft) SW 235 0 min 0,000 mm 5 W/m 4,6 C 6,0 C 8,0 km/h (2 Bft) 98 %
09.11.2017 15:20 6,0 C 5,9 C 6,0 C 91 % 1023,0 hPa 0,0 l/m 1,4 km/h (1 Bft) SW 234 0 min 0,000 mm 0 W/m 4,6 C 6,0 C 6,4 km/h (2 Bft) 99 %
09.11.2017 15:30 5,9 C 5,9 C 6,0 C 91 % 1023,0 hPa 0,0 l/m 3,8 km/h (1 Bft) SW 230 0 min 0,000 mm 0 W/m 4,5 C 5,9 C 9,7 km/h (2 Bft) 100 %
09.11.2017 15:40 5,9 C 5,9 C 5,9 C 91 % 1023,0 hPa 0,0 l/m 2,7 km/h (1 Bft) SW 230 0 min 0,000 mm 0 W/m 4,5 C 5,9 C 8,0 km/h (2 Bft) 100 %
09.11.2017 15:50 5,9 C 5,9 C 5,9 C 91 % 1023,0 hPa 0,0 l/m 1,3 km/h (1 Bft) SW 230 0 min 0,000 mm 0 W/m 4,5 C 5,9 C 6,4 km/h (2 Bft) 100 %
09.11.2017 16:00 5,9 C 5,9 C 5,9 C 91 % 1023,1 hPa 0,2 l/m 0,0 km/h (0 Bft) SW 230 0 min 0,000 mm 5 W/m 4,5 C 5,9 C 0,0 km/h (0 Bft) 100 %
09.11.2017 16:10 5,9 C 5,9 C 5,9 C 91 % 1023,1 hPa 0,0 l/m 3,0 km/h (1 Bft) SW 221 0 min 0,000 mm 9 W/m 4,5 C 5,9 C 8,0 km/h (2 Bft) 100 %
09.11.2017 16:20 5,9 C 5,9 C 5,9 C 91 % 1023,3 hPa 0,0 l/m 3,2 km/h (1 Bft) SW 221 0 min 0,000 mm 0 W/m 4,5 C 5,9 C 6,4 km/h (2 Bft) 100 %
09.11.2017 16:30 5,9 C 5,9 C 6,0 C 91 % 1023,4 hPa 0,0 l/m 2,2 km/h (1 Bft) SW 221 0 min 0,000 mm 0 W/m 4,5 C 5,9 C 6,4 km/h (2 Bft) 100 %
09.11.2017 16:40 5,9 C 5,9 C 5,9 C 91 % 1023,5 hPa 0,2 l/m 3,8 km/h (1 Bft) SW 219 0 min 0,000 mm 0 W/m 4,5 C 5,9 C 8,0 km/h (2 Bft) 100 %
09.11.2017 16:50 5,9 C 5,9 C 5,9 C 91 % 1023,5 hPa 0,2 l/m 3,1 km/h (1 Bft) SW 219 0 min 0,000 mm 0 W/m 4,5 C 5,9 C 4,8 km/h (1 Bft) 100 %
09.11.2017 17:00 5,9 C 5,9 C 5,9 C 91 % 1023,6 hPa 0,0 l/m 0,8 km/h (0 Bft) SW 219 0 min 0,000 mm 0 W/m 4,5 C 5,9 C 4,8 km/h (1 Bft) 100 %
09.11.2017 17:10 5,9 C 5,9 C 5,9 C 91 % 1023,7 hPa 0,0 l/m 0,9 km/h (0 Bft) SW 219 0 min 0,000 mm 0 W/m 4,5 C 5,9 C 4,8 km/h (1 Bft) 100 %
09.11.2017 17:20 5,9 C 5,9 C 5,9 C 91 % 1023,7 hPa 0,0 l/m 0,0 km/h (0 Bft) SW 219 0 min 0,000 mm 0 W/m 4,5 C 5,9 C 1,6 km/h (1 Bft) 99 %
09.11.2017 17:30 5,9 C 5,9 C 5,9 C 91 % 1023,8 hPa 0,0 l/m 3,0 km/h (1 Bft) SW 215 0 min 0,000 mm 0 W/m 4,5 C 5,9 C 8,0 km/h (2 Bft) 100 %
09.11.2017 17:40 5,9 C 5,9 C 5,9 C 91 % 1023,8 hPa 0,0 l/m 0,6 km/h (0 Bft) SW 215 0 min 0,000 mm 0 W/m 4,5 C 5,9 C 4,8 km/h (1 Bft) 100 %
09.11.2017 17:50 5,9 C 5,8 C 5,9 C 91 % 1023,9 hPa 0,0 l/m 0,9 km/h (0 Bft) SW 215 0 min 0,000 mm 0 W/m 4,5 C 5,9 C 4,8 km/h (1 Bft) 100 %
09.11.2017 18:00 5,9 C 5,8 C 5,9 C 91 % 1024,0 hPa 0,0 l/m 2,4 km/h (1 Bft) SW 215 0 min 0,000 mm 0 W/m 4,5 C 5,9 C 4,8 km/h (1 Bft) 100 %
09.11.2017 18:10 5,9 C 5,9 C 5,9 C 91 % 1024,2 hPa 0,0 l/m 1,0 km/h (0 Bft) SW 215 0 min 0,000 mm 0 W/m 4,5 C 5,9 C 4,8 km/h (1 Bft) 100 %
09.11.2017 18:20 5,9 C 5,9 C 5,9 C 91 % 1024,3 hPa 0,0 l/m 2,2 km/h (1 Bft) SW 215 0 min 0,000 mm 0 W/m 4,5 C 5,9 C 6,4 km/h (2 Bft) 100 %
09.11.2017 18:30 5,9 C 5,9 C 5,9 C 91 % 1024,2 hPa 0,0 l/m 1,9 km/h (1 Bft) SW 215 0 min 0,000 mm 0 W/m 4,5 C 5,9 C 4,8 km/h (1 Bft) 100 %
09.11.2017 18:40 5,9 C 5,9 C 5,9 C 91 % 1024,3 hPa 0,0 l/m 1,1 km/h (1 Bft) SW 215 0 min 0,000 mm 0 W/m 4,5 C 5,9 C 4,8 km/h (1 Bft) 100 %
09.11.2017 18:50 5,9 C 5,9 C 5,9 C 91 % 1024,3 hPa 0,0 l/m 4,5 km/h (1 Bft) W-SW 256 0 min 0,000 mm 0 W/m 4,5 C 5,9 C 11,3 km/h (2 Bft) 100 %
09.11.2017 19:00 5,9 C 5,9 C 5,9 C 91 % 1024,3 hPa 0,0 l/m 4,5 km/h (1 Bft) SW 232 0 min 0,000 mm 0 W/m 4,5 C 5,9 C 11,3 km/h (2 Bft) 100 %
09.11.2017 19:10 5,8 C 5,8 C 5,9 C 91 % 1024,2 hPa 0,0 l/m 3,7 km/h (1 Bft) SW 233 0 min 0,000 mm 0 W/m 4,4 C 5,8 C 9,7 km/h (2 Bft) 100 %
09.11.2017 19:20 5,9 C 5,8 C 5,9 C 91 % 1024,3 hPa 0,0 l/m 3,7 km/h (1 Bft) SW 225 0 min 0,000 mm 0 W/m 4,5 C 5,9 C 9,7 km/h (2 Bft) 100 %
09.11.2017 19:30 5,8 C 5,8 C 5,9 C 91 % 1024,1 hPa 0,2 l/m 2,9 km/h (1 Bft) SW 224 0 min 0,000 mm 0 W/m 4,4 C 5,8 C 6,4 km/h (2 Bft) 100 %
09.11.2017 19:40 5,8 C 5,8 C 5,9 C 91 % 1024,2 hPa 0,0 l/m 2,4 km/h (1 Bft) SW 224 0 min 0,000 mm 0 W/m 4,4 C 5,8 C 6,4 km/h (2 Bft) 100 %
09.11.2017 19:50 5,8 C 5,8 C 5,9 C 91 % 1024,0 hPa 0,2 l/m 7,0 km/h (2 Bft) S 191 0 min 0,000 mm 0 W/m 4,4 C 5,3 C 14,5 km/h (3 Bft) 100 %
09.11.2017 20:00 5,8 C 5,8 C 5,8 C 91 % 1024,1 hPa 0,0 l/m 4,6 km/h (1 Bft) SW 227 0 min 0,000 mm 0 W/m 4,4 C 5,8 C 12,9 km/h (3 Bft) 100 %
09.11.2017 20:10 5,8 C 5,8 C 5,8 C 91 % 1024,3 hPa 0,0 l/m 5,9 km/h (2 Bft) S-SW 211 0 min 0,000 mm 0 W/m 4,4 C 5,8 C 11,3 km/h (2 Bft) 100 %
09.11.2017 20:20 5,8 C 5,8 C 5,8 C 91 % 1024,3 hPa 0,0 l/m 4,4 km/h (1 Bft) SW 223 0 min 0,000 mm 0 W/m 4,4 C 5,8 C 8,0 km/h (2 Bft) 100 %
09.11.2017 20:30 5,8 C 5,8 C 5,8 C 91 % 1024,4 hPa 0,0 l/m 2,9 km/h (1 Bft) SW 232 0 min 0,000 mm 0 W/m 4,4 C 5,8 C 6,4 km/h (2 Bft) 100 %
09.11.2017 20:40 5,8 C 5,8 C 5,8 C 91 % 1024,5 hPa 0,0 l/m 2,1 km/h (1 Bft) SW 223 0 min 0,000 mm 0 W/m 4,4 C 5,8 C 6,4 km/h (2 Bft) 91 %
09.11.2017 20:50 5,8 C 5,8 C 5,8 C 91 % 1024,5 hPa 0,0 l/m 2,3 km/h (1 Bft) SW 217 0 min 0,000 mm 0 W/m 4,4 C 5,8 C 6,4 km/h (2 Bft) 100 %
09.11.2017 21:00 5,8 C 5,8 C 5,8 C 91 % 1024,3 hPa 0,0 l/m 4,4 km/h (1 Bft) S-SW 213 0 min 0,000 mm 0 W/m 4,4 C 5,8 C 9,7 km/h (2 Bft) 100 %
09.11.2017 21:10 5,8 C 5,8 C 5,8 C 91 % 1024,3 hPa 0,0 l/m 6,4 km/h (2 Bft) S-SW 202 0 min 0,000 mm 0 W/m 4,4 C 5,8 C 16,1 km/h (3 Bft) 100 %
09.11.2017 21:20 5,8 C 5,8 C 5,8 C 91 % 1024,2 hPa 0,0 l/m 4,8 km/h (1 Bft) W-SW 247 0 min 0,000 mm 0 W/m 4,4 C 5,8 C 9,7 km/h (2 Bft) 100 %
09.11.2017 21:30 5,8 C 5,8 C 5,8 C 91 % 1024,3 hPa 0,0 l/m 4,8 km/h (1 Bft) SW 225 0 min 0,000 mm 0 W/m 4,4 C 5,8 C 11,3 km/h (2 Bft) 100 %
09.11.2017 21:40 5,8 C 5,8 C 5,8 C 91 % 1024,4 hPa 0,0 l/m 3,2 km/h (1 Bft) SW 225 0 min 0,000 mm 0 W/m 4,4 C 5,8 C 11,3 km/h (2 Bft) 100 %
09.11.2017 21:50 5,8 C 5,8 C 5,8 C 91 % 1024,4 hPa 0,0 l/m 4,8 km/h (1 Bft) SW 225 0 min 0,000 mm 0 W/m 4,4 C 5,8 C 14,5 km/h (3 Bft) 100 %
09.11.2017 22:00 5,8 C 5,8 C 5,8 C 91 % 1024,3 hPa 0,0 l/m 4,8 km/h (1 Bft) S-SW 202 0 min 0,000 mm 0 W/m 4,4 C 5,8 C 8,0 km/h (2 Bft) 100 %
09.11.2017 22:10 5,8 C 5,8 C 5,8 C 91 % 1024,3 hPa 0,0 l/m 3,2 km/h (1 Bft) SW 225 0 min 0,000 mm 0 W/m 4,4 C 5,8 C 8,0 km/h (2 Bft) 89 %
09.11.2017 22:20 5,8 C 5,8 C 5,8 C 91 % 1024,3 hPa 0,0 l/m 1,6 km/h (1 Bft) SW 225 0 min 0,000 mm 0 W/m 4,4 C 5,8 C 8,0 km/h (2 Bft) 100 %
09.11.2017 22:30 5,8 C 5,8 C 5,8 C 91 % 1024,3 hPa 0,0 l/m 3,2 km/h (1 Bft) W-SW 247 0 min 0,000 mm 0 W/m 4,4 C 5,8 C 11,3 km/h (2 Bft) 100 %
09.11.2017 22:40 5,8 C 5,8 C 5,8 C 91 % 1024,4 hPa 0,0 l/m 3,2 km/h (1 Bft) W-SW 247 0 min 0,000 mm 0 W/m 4,4 C 5,8 C 9,7 km/h (2 Bft) 100 %
09.11.2017 22:50 5,8 C 5,8 C 5,8 C 91 % 1024,2 hPa 0,0 l/m 6,4 km/h (2 Bft) W 270 0 min 0,000 mm 0 W/m 4,4 C 5,8 C 16,1 km/h (3 Bft) 100 %
09.11.2017 23:00 5,8 C 5,8 C 5,8 C 91 % 1024,1 hPa 0,0 l/m 6,4 km/h (2 Bft) W 270 0 min 0,000 mm 0 W/m 4,4 C 5,8 C 11,3 km/h (2 Bft) 100 %
09.11.2017 23:10 5,7 C 5,7 C 5,8 C 91 % 1024,3 hPa 0,0 l/m 8,0 km/h (2 Bft) W 270 0 min 0,000 mm 0 W/m 4,3 C 4,3 C 17,7 km/h (3 Bft) 100 %
09.11.2017 23:20 5,7 C 5,7 C 5,7 C 91 % 1024,2 hPa 0,0 l/m 6,4 km/h (2 Bft) W 270 0 min 0,000 mm 0 W/m 4,3 C 5,7 C 16,1 km/h (3 Bft) 100 %
09.11.2017 23:30 5,6 C 5,6 C 5,7 C 91 % 1024,3 hPa 0,0 l/m 6,4 km/h (2 Bft) W 270 0 min 0,000 mm 0 W/m 4,2 C 5,6 C 16,1 km/h (3 Bft) 100 %
09.11.2017 23:40 5,6 C 5,6 C 5,6 C 91 % 1024,3 hPa 0,0 l/m 8,0 km/h (2 Bft) W 270 0 min 0,000 mm 0 W/m 4,2 C 4,2 C 17,7 km/h (3 Bft) 100 %
09.11.2017 23:50 5,5 C 5,5 C 5,6 C 91 % 1024,2 hPa 0,0 l/m 4,8 km/h (1 Bft) W-SW 247 0 min 0,000 mm 0 W/m 4,2 C 5,5 C 14,5 km/h (3 Bft) 100 %
_ Min-Zeit 23:50 23:50 23:40 00:00 00:00 - 00:00 - - - - - 23:50 23:40 00:00 01:40
Minimum _ 5,5 C 5,5 C 5,6 C 91 % 1019,9 hPa - 0,0 km/h (0 Bft) - - - - - 4,2 C 4,2 C 0,0 km/h (0 Bft) 89 %
_ Max-Zeit 13:10 12:50 13:10 00:00 20:40 00:40 23:10 - - 00:00 12:10 11:10 12:40 12:40 23:10 04:20
Maximum _ 6,3 C 6,2 C 6,3 C 91 % 1024,5 hPa 0,2 l/m 8,0 km/h
W (2 Bft)
- - 0 min 0,026 mm 70 W/m 4,8 C 6,2 C 17,7 km/h
W (3 Bft)
100 %
Durchschnitt _ 5,9 C 5,9 C 5,9 C 91 % 1022,4 hPa #1,8 l/m 2,4 km/h (1 Bft) SW - #0 min. #0,102 mm 25 W/m 4,5 C 5,8 C 6,6 km/h (2 Bft) 99 %
PRIVATE WETTERSTATION BILLIGHEIM-ALLFELD - www.neckar-odenwald-wetter.de - Holger Sonntag